Preview of NWS' New Version of Forecast
This preview is not operational and should not be used for support decisions.

Regional Weather Roundup (RWR)

Issued by National Weather Service (NWS)

                            
000
ASUS45 KCYS 231910
RWRWY 

WYOMING REGIONAL WEATHER ROUNDUP
NATIONAL WEATHER SERVICE CHEYENNE WY
100 PM MDT SUN JUN 23 2019

NOTE:  "FAIR" INDICATES FEW OR NO CLOUDS BELOW 12,000 FEET
WITH NO SIGNIFICANT WEATHER AND/OR OBSTRUCTIONS TO VISIBILITY.

WYZ001-232000-
YELLOWSTONE NATIONAL PARK
  
CITY           SKY/WX    TMP DP  RH WIND       PRES   REMARKS
LK YELLOWSTONE   N/A     50  32  50 VRB3      30.14F                  
W YELLOWSTONE  NOT AVBL                                               

$$
WYZ002>013-054>058-071-098>099-232000-
NORTHERN WYOMING
  
CITY           SKY/WX    TMP DP  RH WIND       PRES   REMARKS
JACKSON        FAIR      57  36  45 S15       30.11F                  
CODY           CLOUDY    65  33  30 NW12G17   29.99F                  
GREYBULL       FAIR      70  36  28 VRB7      29.94F                  
WORLAND        FAIR      71  30  21 CALM      29.96F                  
SHERIDAN       FAIR      70  41  34 S3        29.94F                  
BUFFALO        FAIR      65  40  39 VRB3      29.99F                  
GILLETTE       FAIR      67  44  43 N8        29.96F                  
HULETT         MOCLDY    68  43  40 W14       29.96                   
NEWCASTLE      MOCLDY    61  45  55 E9        30.00                   

$$
WYZ014>020-022>026-101>103-232000-
CENTRAL WYOMING
  
CITY           SKY/WX    TMP DP  RH WIND       PRES   REMARKS
BIG PINEY      CLOUDY    58  32  37 VRB5      30.15F                  
PINEDALE       MOCLDY    57  30  35 W15       30.14                   
DUBOIS         CLOUDY    54  28  37 NW20G25   30.09                   
LANDER         FAIR      66  36  32 SE8       30.02F                  
RIVERTON       FAIR      67  31  26 VRB7      30.03F                  
CASPER         FAIR      63  44  50 VRB5      30.04F                  
DOUGLAS        NOT AVBL                                               

$$
WYZ021-027>030-104>119-232000-
SOUTHERN WYOMING
  
CITY           SKY/WX    TMP DP  RH WIND       PRES   REMARKS
EVANSTON       FAIR      60  29  30 W13G23    30.19F                  
KEMMERER       FAIR      61  27  27 W20G26    30.18                   
ROCK SPRINGS   CLOUDY    59  28  30 W9G20     30.14F                  
DIXON          MOCLDY    56  38  50 S9G18     30.18F                  
RAWLINS        CLOUDY    57  35  43 W16G22    30.12F                  
SARATOGA       MOCLDY    50  39  66 W3        30.15S                  
LARAMIE        CLOUDY    45  37  73 N13       30.12F                  
CHEYENNE       CLOUDY    54  41  61 NW15G24   30.08S                  
TORRINGTON     LGT RAIN  51  46  83 NE5       30.02F                  
PINE BLUFFS    FAIR      54  43  66 N10       30.05S                  

$$